Zurück zum Katalog

THOR ABLESTAR DEB

AktivLEO
NORAD 150·DEBRIS·🇺🇸 United States

Gestartet Jun 29, 1961 von Cape Canaveral Space Force Station

Loading…

Nächste Überflüge (nächste 24 Stunden)

TLE

AktuellSource: Space-Track

Epoche: Sep 10, 2026, 18:34 UTC

1 00150U 61015AL  26253.77419452  .00000372  00000-0  39945-3 0  9991
2 00150  66.2473  51.7995 0064529 212.0662 147.6476 13.83938323120345

Verfolge THOR ABLESTAR DEB in Echtzeit mit AllMySat

Download on the App Store